Simultaneous Nadir Overpasses (SNOs) Predictions

Prediction of SNOs between LANDSAT-8 and METOP-A Satellite Orbit:

Table of predicted SNOs for the next 14.0 days since TLE Epoch: 2/16/2018
Index Date (LANDSAT-8) Time (LANDSAT-8) Lat,Lon (LANDSAT-8) SZA (LANDSAT-8 ) Date (METOP-A) Time (METOP-A) Lat,Lon (METOP-A) SZA (METOP-A ) Distance(km) Time Diff (sec)
1 02/17/2018 15:14:36 -81.31, 173.91 84.99 02/17/2018 15:13:51 -81.30, 173.91 85.01 0.67 45
2 02/17/2018 16:04:02 81.31, -18.34 95.02 02/17/2018 16:04:31 81.31, -18.35 95.03 0.46 29
3 02/20/2018 10:48:51 -81.29,-119.99 86.02 02/20/2018 10:48:10 -81.29,-119.92 86.03 1.29 41
4 02/20/2018 11:38:16 81.31, 48.12 94.03 02/20/2018 11:38:49 81.31, 48.19 94.05 1.12 33
5 02/23/2018 06:23:04 -81.31, -53.16 86.98 02/23/2018 06:22:27 -81.31, -52.99 86.98 2.89 37
6 02/23/2018 07:12:30 81.31, 114.54 93.02 02/23/2018 07:13:07 81.31, 114.71 93.05 2.86 37
7 02/26/2018 01:57:17 -81.31, 13.24 88.01 02/26/2018 01:56:45 -81.30, 13.15 88.04 1.75 32
8 02/26/2018 02:46:43 81.31,-179.09 91.98 02/26/2018 02:47:25 81.31,-179.18 91.99 1.61 42
9 02/28/2018 21:31:31 -81.30, 79.60 89.07 02/28/2018 21:31:03 -81.30, 79.66 89.07 0.91 28




NCC Satellite Simultaneous Nadir Overpasses (SNOs) Prediction Service
